| time (UTC) | temp C | wind direction | speed KPH | gust KPH | rain 1hr cm | rain 24hr cm | rain mn cm | humidity % | barometer mb |
| 20260506084535 | 10 | 360 | 4.8 | 8.0 | 0.00 | 0.00 | 0.00 | 86 | 1019.1 |
| 20260506084352 | 10 | 15 | 4.8 | 8.0 | 0.00 | 0.00 | 0.00 | 86 | 1019.1 |
| 20260506083335 | 11 | 355 | 1.6 | 4.8 | 0.00 | 0.00 | 0.00 | 87 | 1019.1 |
| 20260506083041 | 10 | 13 | 0.0 | 0.0 | 0.00 | 0.00 | 0.00 | 87 | 1019.1 |
| 20260506082344 | 11 | 360 | 0.0 | 0.0 | 0.00 | 0.00 | 0.00 | 87 | 1019.2 |
| 20260506081536 | 10 | 355 | 0.0 | 4.8 | 0.00 | 0.00 | 0.00 | 87 | 1019.1 |
| 20260506081326 | 11 | 355 | 0.0 | 6.4 | 0.00 | 0.00 | 0.00 | 87 | 1019.2 |
| 20260506080337 | 11 | 355 | 3.2 | 3.2 | 0.00 | 0.00 | 0.00 | 87 | 1019.1 |
| 20260506073334 | 11 | 355 | 0.0 | 0.0 | 0.00 | 0.00 | 0.00 | 87 | 1018.8 |
| 20260506073112 | 11 | 355 | 0.0 | 0.0 | 0.00 | 0.00 | 0.00 | 87 | 1018.7 |
| 20260506072349 | 11 | 355 | 0.0 | 0.0 | 0.00 | 0.00 | 0.00 | 87 | 1018.8 |
| 20260506071544 | 11 | 355 | 0.0 | 1.6 | 0.00 | 0.00 | 0.00 | 85 | 1018.7 |
| 20260506071347 | 11 | 355 | 0.0 | 1.6 | 0.00 | 0.00 | 0.00 | 86 | 1018.7 |
| 20260506070331 | 11 | 355 | 3.2 | 4.8 | 0.00 | 0.00 | 0.00 | 86 | 1018.6 |
| 20260506062326 | 11 | 263 | 1.6 | 4.8 | 0.00 | 0.00 | 0.00 | 84 | 1018.4 |
| 20260506061547 | 11 | 155 | 0.0 | 0.0 | 0.00 | 0.00 | 0.00 | 83 | 1018.3 |
| 20260506061354 | 11 | 155 | 0.0 | 0.0 | 0.00 | 0.00 | 0.00 | 83 | 1018.3 |
| 20260506060323 | 12 | 155 | 0.0 | 3.2 | 0.00 | 0.00 | 0.00 | 82 | 1018.2 |
| 20260506051350 | 12 | 305 | 14.5 | 20.9 | 0.00 | 0.00 | 0.00 | 82 | 1017.9 |
| 20260506050350 | 12 | 296 | 17.7 | 20.9 | 0.00 | 0.00 | 0.00 | 82 | 1017.7 |
| 20260506044524 | 12 | 297 | 17.7 | 24.1 | 0.00 | 0.00 | 0.00 | 81 | 1017.4 |
| 20260506044323 | 12 | 289 | 17.7 | 24.1 | 0.00 | 0.00 | 0.00 | 81 | 1017.5 |
| 20260506043328 | 12 | 313 | 16.1 | 22.5 | 0.00 | 0.00 | 0.00 | 80 | 1017.3 |
| 20260506043053 | 12 | 312 | 17.7 | 22.5 | 0.00 | 0.00 | 0.00 | 80 | 1017.2 |
| 20260506042355 | 13 | 299 | 16.1 | 22.5 | 0.00 | 0.00 | 0.00 | 80 | 1017.1 |
| 20260506041530 | 12 | 311 | 16.1 | 20.9 | 0.00 | 0.00 | 0.00 | 80 | 1016.9 |
| 20260506041325 | 13 | 295 | 14.5 | 20.9 | 0.00 | 0.00 | 0.00 | 79 | 1017.1 |
| 20260506040354 | 13 | 286 | 16.1 | 20.9 | 0.00 | 0.00 | 0.00 | 79 | 1016.7 |
| 20260506035336 | 13 | 309 | 16.1 | 24.1 | 0.00 | 0.00 | 0.00 | 78 | 1016.7 |
| 20260506034510 | 13 | 311 | 19.3 | 25.7 | 0.00 | 0.00 | 0.00 | 78 | 1016.6 |
| 20260506034328 | 13 | 291 | 16.1 | 22.5 | 0.00 | 0.00 | 0.00 | 77 | 1016.6 |
| 20260506033337 | 13 | 306 | 19.3 | 24.1 | 0.00 | 0.00 | 0.00 | 77 | 1016.4 |
| 20260506033002 | 13 | 296 | 17.7 | 29.0 | 0.00 | 0.00 | 0.00 | 77 | 1016.2 |
| 20260506032328 | 13 | 288 | 22.5 | 29.0 | 0.00 | 0.00 | 0.00 | 76 | 1016.1 |
| 20260506031553 | 13 | 321 | 20.9 | 25.7 | 0.00 | 0.00 | 0.00 | 75 | 1016.0 |
| 20260506031357 | 14 | 297 | 20.9 | 30.6 | 0.00 | 0.00 | 0.00 | 75 | 1016.1 |
| 20260506030327 | 14 | 294 | 22.5 | 30.6 | 0.00 | 0.00 | 0.00 | 74 | 1016.0 |
| 20260506030022 | 14 | 309 | 24.1 | 30.6 | 0.00 | 0.00 | 0.00 | 74 | 1015.8 |
| 20260506025333 | 15 | 317 | 22.5 | 29.0 | 0.00 | 0.00 | 0.00 | 73 | 1015.9 |
| 20260506024511 | 15 | 281 | 24.1 | 37.0 | 0.00 | 0.00 | 0.00 | 72 | 1015.7 |
| 20260506024323 | 15 | 312 | 25.7 | 37.0 | 0.00 | 0.00 | 0.00 | 71 | 1015.8 |
| 20260506023329 | 15 | 309 | 24.1 | 30.6 | 0.00 | 0.00 | 0.00 | 70 | 1015.8 |
| 20260506023005 | 15 | 298 | 22.5 | 30.6 | 0.00 | 0.00 | 0.00 | 69 | 1015.6 |
| 20260506022339 | 16 | 296 | 22.5 | 38.6 | 0.00 | 0.00 | 0.00 | 68 | 1015.6 |
| 20260506021519 | 16 | 304 | 27.4 | 35.4 | 0.00 | 0.00 | 0.00 | 67 | 1015.5 |
| 20260506021329 | 16 | 296 | 27.4 | 33.8 | 0.00 | 0.00 | 0.00 | 67 | 1015.5 |
| 20260506020335 | 16 | 297 | 25.7 | 35.4 | 0.00 | 0.00 | 0.00 | 66 | 1015.5 |
| 20260506020126 | 16 | 318 | 27.4 | 35.4 | 0.00 | 0.00 | 0.00 | 66 | 1015.5 |
| 20260506015325 | 16 | 314 | 24.1 | 35.4 | 0.00 | 0.00 | 0.00 | 65 | 1015.5 |
| 20260506014514 | 16 | 319 | 22.5 | 35.4 | 0.00 | 0.00 | 0.00 | 64 | 1015.4 |
| 20260506014336 | 17 | 285 | 25.7 | 35.4 | 0.00 | 0.00 | 0.00 | 64 | 1015.5 |
| 20260506013326 | 17 | 322 | 22.5 | 33.8 | 0.00 | 0.00 | 0.00 | 63 | 1015.3 |
| 20260506013006 | 17 | 309 | 24.1 | 33.8 | 0.00 | 0.00 | 0.00 | 63 | 1015.3 |
| 20260506012339 | 17 | 304 | 24.1 | 35.4 | 0.00 | 0.00 | 0.00 | 62 | 1015.4 |
| 20260506011525 | 17 | 317 | 22.5 | 35.4 | 0.00 | 0.00 | 0.00 | 61 | 1015.3 |
| 20260506011324 | 18 | 322 | 25.7 | 40.2 | 0.00 | 0.00 | 0.00 | 61 | 1015.4 |
| 20260506010326 | 18 | 325 | 24.1 | 40.2 | 0.00 | 0.00 | 0.00 | 61 | 1015.5 |
| 20260506010045 | 17 | 306 | 27.4 | 40.2 | 0.00 | 0.00 | 0.00 | 61 | 1015.3 |
| 20260506005353 | 18 | 277 | 29.0 | 40.2 | 0.00 | 0.00 | 0.00 | 59 | 1015.4 |
| 20260506004526 | 18 | 274 | 24.1 | 33.8 | 0.00 | 0.00 | 0.00 | 58 | 1015.3 |
| 20260506004325 | 18 | 313 | 22.5 | 32.2 | 0.00 | 0.00 | 0.00 | 58 | 1015.4 |
| 20260506003334 | 18 | 309 | 22.5 | 30.6 | 0.00 | 0.00 | 0.00 | 58 | 1015.3 |
| 20260506003020 | 17 | 317 | 24.1 | 33.8 | 0.00 | 0.00 | 0.00 | 59 | 1015.2 |
| 20260506002326 | 18 | 284 | 24.1 | 33.8 | 0.00 | 0.00 | 0.00 | 59 | 1015.3 |
| 20260506001538 | 17 | 282 | 22.5 | 33.8 | 0.00 | 0.00 | 0.00 | 60 | 1015.1 |
| 20260506001337 | 17 | 264 | 22.5 | 30.6 | 0.00 | 0.00 | 0.00 | 60 | 1015.2 |
| 20260506000323 | 17 | 300 | 20.9 | 33.8 | 0.00 | 0.00 | 0.00 | 60 | 1015.2 |
| 20260506000006 | 17 | 306 | 25.7 | 33.8 | 0.00 | 0.00 | 0.00 | 59 | 1015.0 |
| 20260505235335 | 18 | 274 | 24.1 | 32.2 | 0.00 | 0.00 | 0.00 | 59 | 1015.0 |
| 20260505234523 | 18 | 281 | 24.1 | 37.0 | 0.00 | 0.00 | 0.00 | 58 | 1015.1 |
| 20260505234326 | 18 | 302 | 24.1 | 37.0 | 0.00 | 0.00 | 0.00 | 58 | 1015.0 |
| 20260505233334 | 18 | 262 | 24.1 | 30.6 | 0.00 | 0.00 | 0.00 | 57 | 1015.0 |
| 20260505233014 | 18 | 275 | 22.5 | 30.6 | 0.00 | 0.00 | 0.00 | 57 | 1014.9 |
| 20260505232325 | 18 | 280 | 22.5 | 37.0 | 0.00 | 0.00 | 0.00 | 56 | 1015.1 |
| 20260505231530 | 19 | 297 | 24.1 | 32.2 | 0.00 | 0.00 | 0.00 | 54 | 1014.9 |
| 20260505231334 | 19 | 307 | 24.1 | 32.2 | 0.00 | 0.00 | 0.00 | 54 | 1015.0 |
| 20260505230325 | 20 | 267 | 22.5 | 33.8 | 0.00 | 0.00 | 0.00 | 53 | 1015.0 |
| 20260505230031 | 18 | 298 | 19.3 | 33.8 | 0.00 | 0.00 | 0.00 | 54 | 1015.1 |
| 20260505225353 | 18 | 288 | 22.5 | 32.2 | 0.00 | 0.00 | 0.00 | 54 | 1015.1 |
| 20260505224511 | 18 | 298 | 19.3 | 33.8 | 0.00 | 0.00 | 0.00 | 54 | 1015.2 |
| 20260505224337 | 18 | 271 | 22.5 | 37.0 | 0.00 | 0.00 | 0.00 | 53 | 1015.3 |
| 20260505223325 | 19 | 316 | 22.5 | 35.4 | 0.00 | 0.00 | 0.00 | 53 | 1015.3 |
| 20260505223001 | 18 | 306 | 22.5 | 37.0 | 0.00 | 0.00 | 0.00 | 54 | 1015.2 |
| 20260505222335 | 18 | 316 | 27.4 | 37.0 | 0.00 | 0.00 | 0.00 | 53 | 1015.3 |
| 20260505221515 | 18 | 284 | 20.9 | 33.8 | 0.00 | 0.00 | 0.00 | 54 | 1015.1 |
| 20260505221324 | 18 | 283 | 24.1 | 33.8 | 0.00 | 0.00 | 0.00 | 53 | 1015.2 |
| 20260505220334 | 19 | 267 | 19.3 | 37.0 | 0.00 | 0.00 | 0.00 | 53 | 1015.3 |
| 20260505220107 | 18 | 265 | 24.1 | 37.0 | 0.00 | 0.00 | 0.00 | 53 | 1015.2 |
| 20260505215345 | 18 | 268 | 19.3 | 27.4 | 0.00 | 0.00 | 0.00 | 53 | 1015.5 |
| 20260505214534 | 18 | 294 | 19.3 | 29.0 | 0.00 | 0.00 | 0.00 | 52 | 1015.4 |
| 20260505214329 | 18 | 268 | 22.5 | 32.2 | 0.00 | 0.00 | 0.00 | 51 | 1015.5 |
| 20260505213333 | 18 | 271 | 16.1 | 29.0 | 0.00 | 0.00 | 0.00 | 50 | 1015.6 |
| 20260505213007 | 18 | 305 | 22.5 | 29.0 | 0.00 | 0.00 | 0.00 | 50 | 1015.6 |
| 20260505212337 | 18 | 313 | 17.7 | 29.0 | 0.00 | 0.00 | 0.00 | 51 | 1015.6 |
| 20260505211626 | 18 | 299 | 16.1 | 30.6 | 0.00 | 0.00 | 0.00 | 50 | 1015.6 |
| 20260505211352 | 18 | 292 | 17.7 | 30.6 | 0.00 | 0.00 | 0.00 | 50 | 1015.6 |
| 20260505210400 | 18 | 316 | 9.7 | 29.0 | 0.00 | 0.00 | 0.00 | 49 | 1015.7 |
| 20260505210002 | 18 | 321 | 22.5 | 29.0 | 0.00 | 0.00 | 0.00 | 49 | 1015.6 |
| 20260505205325 | 18 | 322 | 17.7 | 27.4 | 0.00 | 0.00 | 0.00 | 49 | 1015.9 |
| 20260505204608 | 17 | 313 | 16.1 | 27.4 | 0.00 | 0.00 | 0.00 | 49 | 1015.8 |
| 20260505204324 | 17 | 315 | 12.9 | 27.4 | 0.00 | 0.00 | 0.00 | 50 | 1016.0 |
| 20260505203326 | 17 | 276 | 17.7 | 25.7 | 0.00 | 0.00 | 0.00 | 54 | 1015.9 |
| 20260505203030 | 17 | 249 | 14.5 | 25.7 | 0.00 | 0.00 | 0.00 | 53 | 1015.7 |
| 20260505202337 | 17 | 270 | 17.7 | 29.0 | 0.00 | 0.00 | 0.00 | 53 | 1015.9 |
| 20260505201522 | 16 | 281 | 11.3 | 27.4 | 0.00 | 0.00 | 0.00 | 57 | 1015.9 |
| 20260505201326 | 17 | 313 | 19.3 | 27.4 | 0.00 | 0.00 | 0.00 | 56 | 1016.1 |
| 20260505200330 | 16 | 300 | 19.3 | 27.4 | 0.00 | 0.00 | 0.00 | 56 | 1016.2 |
| 20260505195339 | 16 | 296 | 14.5 | 25.7 | 0.00 | 0.00 | 0.00 | 58 | 1016.2 |
| 20260505194514 | 16 | 324 | 19.3 | 29.0 | 0.00 | 0.00 | 0.00 | 58 | 1016.2 |
| 20260505194331 | 17 | 327 | 22.5 | 29.0 | 0.00 | 0.00 | 0.00 | 57 | 1016.2 |
| 20260505193335 | 17 | 325 | 17.7 | 29.0 | 0.00 | 0.00 | 0.00 | 58 | 1016.2 |
| 20260505193040 | 16 | 344 | 16.1 | 29.0 | 0.00 | 0.00 | 0.00 | 59 | 1016.1 |
| 20260505192345 | 16 | 325 | 19.3 | 29.0 | 0.00 | 0.00 | 0.00 | 59 | 1016.3 |
| 20260505191603 | 16 | 294 | 20.9 | 27.4 | 0.00 | 0.00 | 0.00 | 59 | 1016.2 |
| 20260505191325 | 16 | 283 | 17.7 | 29.0 | 0.00 | 0.00 | 0.00 | 59 | 1016.4 |
| 20260505190338 | 17 | 298 | 20.9 | 29.0 | 0.00 | 0.00 | 0.00 | 58 | 1016.4 |
| 20260505190032 | 16 | 294 | 19.3 | 30.6 | 0.00 | 0.00 | 0.00 | 59 | 1016.3 |
| 20260505185342 | 17 | 292 | 22.5 | 35.4 | 0.00 | 0.00 | 0.00 | 59 | 1016.3 |
| 20260505184521 | 16 | 304 | 22.5 | 32.2 | 0.00 | 0.00 | 0.00 | 58 | 1016.2 |
| 20260505184332 | 17 | 286 | 19.3 | 32.2 | 0.00 | 0.00 | 0.00 | 58 | 1016.3 |
| 20260505183322 | 16 | 302 | 19.3 | 32.2 | 0.00 | 0.00 | 0.00 | 59 | 1016.2 |
| 20260505183014 | 16 | 302 | 24.1 | 32.2 | 0.00 | 0.00 | 0.00 | 58 | 1016.1 |
| 20260505182331 | 16 | 340 | 20.9 | 30.6 | 0.00 | 0.00 | 0.00 | 58 | 1016.1 |
| 20260505181526 | 16 | 323 | 22.5 | 32.2 | 0.00 | 0.00 | 0.00 | 57 | 1016.0 |
| 20260505181339 | 17 | 319 | 17.7 | 32.2 | 0.00 | 0.00 | 0.00 | 58 | 1016.0 |
| 20260505180325 | 17 | 266 | 14.5 | 25.7 | 0.00 | 0.00 | 0.00 | 59 | 1015.9 |
| 20260505180014 | 16 | 332 | 17.7 | 25.7 | 0.00 | 0.00 | 0.00 | 58 | 1015.9 |
| 20260505175337 | 16 | 315 | 17.7 | 25.7 | 0.00 | 0.00 | 0.00 | 60 | 1015.9 |
| 20260505174537 | 16 | 311 | 14.5 | 24.1 | 0.00 | 0.00 | 0.00 | 61 | 1015.8 |
| 20260505174327 | 16 | 271 | 16.1 | 24.1 | 0.00 | 0.00 | 0.00 | 61 | 1015.9 |
| 20260505173335 | 16 | 284 | 14.5 | 27.4 | 0.00 | 0.00 | 0.00 | 63 | 1015.8 |
| 20260505173105 | 15 | 319 | 11.3 | 27.4 | 0.00 | 0.00 | 0.00 | 64 | 1015.6 |
| 20260505172322 | 15 | 325 | 14.5 | 24.1 | 0.00 | 0.00 | 0.00 | 66 | 1015.8 |
| 20260505171518 | 15 | 265 | 14.5 | 19.3 | 0.00 | 0.00 | 0.00 | 70 | 1015.7 |
| 20260505171331 | 15 | 321 | 11.3 | 16.1 | 0.00 | 0.00 | 0.00 | 70 | 1015.9 |
| 20260505170322 | 15 | 11 | 6.4 | 19.3 | 0.00 | 0.00 | 0.00 | 71 | 1016.0 |
| 20260505170004 | 14 | 257 | 11.3 | 19.3 | 0.00 | 0.00 | 0.00 | 72 | 1015.9 |
| 20260505165332 | 14 | 259 | 11.3 | 17.7 | 0.00 | 0.00 | 0.00 | 73 | 1015.9 |
| 20260505164516 | 13 | 254 | 4.8 | 17.7 | 0.00 | 0.00 | 0.00 | 75 | 1015.8 |
| 20260505164336 | 13 | 234 | 9.7 | 17.7 | 0.00 | 0.00 | 0.00 | 75 | 1015.9 |
| 20260505163329 | 13 | 247 | 4.8 | 8.0 | 0.00 | 0.00 | 0.00 | 77 | 1016.1 |
| 20260505163014 | 13 | 248 | 6.4 | 11.3 | 0.00 | 0.00 | 0.00 | 77 | 1015.9 |
| 20260505162338 | 13 | 244 | 6.4 | 11.3 | 0.00 | 0.00 | 0.00 | 77 | 1016.1 |
| 20260505161524 | 12 | 258 | 6.4 | 12.9 | 0.00 | 0.00 | 0.00 | 77 | 1015.8 |
| 20260505161327 | 13 | 271 | 6.4 | 12.9 | 0.00 | 0.00 | 0.00 | 78 | 1015.9 |
| 20260505160338 | 12 | 256 | 6.4 | 9.7 | 0.00 | 0.00 | 0.00 | 78 | 1015.8 |
| 20260505153327 | 12 | 209 | 1.6 | 4.8 | 0.00 | 0.00 | 0.00 | 80 | 1016.0 |
| 20260505153034 | 12 | 209 | 1.6 | 4.8 | 0.00 | 0.00 | 0.00 | 80 | 1015.8 |
| 20260505152354 | 12 | 235 | 0.0 | 6.4 | 0.00 | 0.00 | 0.00 | 80 | 1015.9 |
| 20260505151515 | 11 | 226 | 4.8 | 6.4 | 0.00 | 0.00 | 0.00 | 81 | 1015.7 |
| 20260505151324 | 11 | 250 | 3.2 | 6.4 | 0.00 | 0.00 | 0.00 | 81 | 1015.8 |
| 20260505150333 | 11 | 250 | 0.0 | 4.8 | 0.00 | 0.00 | 0.00 | 82 | 1015.7 |
| 20260505140326 | 10 | 102 | 0.0 | 0.0 | 0.00 | 0.00 | 0.00 | 87 | 1015.4 |
| 20260505140110 | 10 | 102 | 0.0 | 0.0 | 0.00 | 0.00 | 0.00 | 87 | 1015.3 |
| 20260505124528 | 10 | 342 | 3.2 | 6.4 | 0.00 | 0.00 | 0.00 | 85 | 1014.9 |
| 20260505124339 | 10 | 317 | 3.2 | 6.4 | 0.00 | 0.00 | 0.00 | 85 | 1014.9 |
| 20260505123326 | 10 | 343 | 4.8 | 6.4 | 0.00 | 0.00 | 0.00 | 85 | 1015.0 |
| 20260505123101 | 10 | 340 | 4.8 | 6.4 | 0.00 | 0.00 | 0.00 | 85 | 1014.9 |
| 20260505122331 | 10 | 344 | 4.8 | 6.4 | 0.00 | 0.00 | 0.00 | 85 | 1014.9 |
| 20260505121507 | 10 | 347 | 4.8 | 6.4 | 0.00 | 0.00 | 0.00 | 85 | 1014.8 |
| 20260505121321 | 10 | 336 | 6.4 | 6.4 | 0.00 | 0.00 | 0.00 | 85 | 1014.9 |
| 20260505120332 | 10 | 333 | 0.0 | 0.0 | 0.00 | 0.00 | 0.00 | 85 | 1014.8 |
| 20260505120001 | 10 | 304 | 0.0 | 0.0 | 0.00 | 0.00 | 0.00 | 85 | 1014.8 |
| 20260505115322 | 11 | 304 | 0.0 | 0.0 | 0.00 | 0.00 | 0.00 | 85 | 1014.7 |
| 20260505114517 | 10 | 304 | 0.0 | 0.0 | 0.00 | 0.00 | 0.00 | 85 | 1014.6 |
| 20260505114334 | 11 | 304 | 0.0 | 0.0 | 0.00 | 0.00 | 0.00 | 85 | 1014.7 |
| 20260505113337 | 11 | 304 | 0.0 | 0.0 | 0.00 | 0.00 | 0.00 | 84 | 1014.7 |
| 20260505113004 | 10 | 304 | 0.0 | 0.0 | 0.00 | 0.00 | 0.00 | 84 | 1014.7 |
| 20260505112328 | 11 | 304 | 0.0 | 0.0 | 0.00 | 0.00 | 0.00 | 84 | 1014.7 |
| 20260505111506 | 11 | 304 | 0.0 | 4.8 | 0.00 | 0.00 | 0.00 | 84 | 1014.7 |
| 20260505111332 | 11 | 304 | 0.0 | 4.8 | 0.00 | 0.00 | 0.00 | 84 | 1014.7 |
| 20260505110322 | 11 | 304 | 3.2 | 8.0 | 0.00 | 0.00 | 0.00 | 84 | 1014.8 |
| 20260505110118 | 11 | 293 | 3.2 | 11.3 | 0.00 | 0.00 | 0.00 | 84 | 1014.8 |
| 20260505101533 | 11 | 286 | 3.2 | 8.0 | 0.00 | 0.00 | 0.00 | 83 | 1014.9 |
| 20260505101323 | 11 | 273 | 6.4 | 9.7 | 0.00 | 0.00 | 0.00 | 83 | 1014.9 |
| 20260505100334 | 11 | 281 | 4.8 | 11.3 | 0.00 | 0.00 | 0.00 | 83 | 1015.0 |
| 20260505100012 | 11 | 298 | 4.8 | 11.3 | 0.00 | 0.00 | 0.00 | 83 | 1014.9 |
| 20260505095338 | 11 | 306 | 4.8 | 12.9 | 0.00 | 0.00 | 0.00 | 83 | 1014.9 |
| 20260505094524 | 11 | 294 | 6.4 | 12.9 | 0.00 | 0.00 | 0.00 | 83 | 1014.8 |
| 20260505094328 | 11 | 317 | 8.0 | 12.9 | 0.00 | 0.00 | 0.00 | 83 | 1014.8 |
| 20260505093339 | 11 | 308 | 8.0 | 12.9 | 0.00 | 0.00 | 0.00 | 84 | 1014.8 |
| 20260505093017 | 11 | 296 | 8.0 | 12.9 | 0.00 | 0.00 | 0.00 | 84 | 1014.7 |
| 20260505092327 | 11 | 299 | 8.0 | 12.9 | 0.00 | 0.00 | 0.00 | 83 | 1014.8 |
| 20260505091528 | 11 | 294 | 4.8 | 8.0 | 0.00 | 0.00 | 0.00 | 83 | 1014.8 |
| 20260505091335 | 11 | 293 | 4.8 | 8.0 | 0.00 | 0.00 | 0.00 | 83 | 1014.8 |
| 20260505090325 | 11 | 285 | 4.8 | 11.3 | 0.00 | 0.00 | 0.00 | 83 | 1015.0 |
| 20260505090022 | 11 | 261 | 4.8 | 11.3 | 0.00 | 0.00 | 0.00 | 83 | 1015.0 |
| 20260505085352 | 11 | 263 | 8.0 | 12.9 | 0.00 | 0.00 | 0.00 | 83 | 1015.0 |